EW5545 Weather Reports


Display with metric or nautical units.
time (UTC)temp
F
wind
direction
speed
MPH
gust
MPH
rain 1hr
in
rain 24hr
in
rain mn
in
humidity
%
barometer
mb
20260506150507 65 180 6.0 12.0 0.00 0.00 0.00 79 1012.8
20260506150005 65 198 6.0 12.0 0.00 0.00 0.00 78 1012.9
20260506145506 65 176 7.0 13.0 0.00 0.00 0.00 78 1012.8
20260506145007 65 175 6.0 13.0 0.00 0.00 0.00 78 1012.8
20260506144506 65 173 5.0 13.0 0.00 0.00 0.00 78 1012.9
20260506144005 65 185 7.0 12.0 0.00 0.00 0.00 78 1013.1
20260506143506 65 203 6.0 13.0 0.00 0.00 0.00 78 1013.1
20260506143006 65 191 5.0 10.0 0.00 0.00 0.00 79 1013.0
20260506142507 65 176 4.0 9.0 0.00 0.00 0.00 79 1013.0
20260506142006 65 164 6.0 13.0 0.00 0.00 0.00 79 1013.0
20260506141505 65 190 7.0 13.0 0.00 0.00 0.00 78 1013.1
20260506135506 65 188 6.0 14.0 0.00 0.00 0.00 78 1013.1
20260506135006 65 183 7.0 15.0 0.00 0.00 0.00 78 1013.1
20260506134007 65 163 6.0 14.0 0.00 0.00 0.00 78 1013.2
20260506133506 65 185 7.0 15.0 0.00 0.00 0.00 78 1013.3
20260506133005 65 176 6.0 13.0 0.00 0.00 0.00 78 1013.3
20260506132006 64 192 5.0 12.0 0.00 0.00 0.00 80 1013.4
20260506131505 64 188 8.0 15.0 0.00 0.00 0.00 80 1013.5
20260506131005 64 191 6.0 12.0 0.00 0.00 0.00 80 1013.5
20260506130006 64 185 3.0 12.0 0.00 0.00 0.00 80 1013.6
20260506125507 64 207 6.0 14.0 0.00 0.00 0.00 80 1013.7
20260506125007 64 184 5.0 12.0 0.00 0.00 0.00 80 1013.7
20260506124506 64 190 8.0 16.0 0.00 0.00 0.00 80 1013.7
20260506123508 65 193 6.0 12.0 0.00 0.00 0.00 80 1013.7
20260506123007 65 202 7.0 13.0 0.00 0.00 0.00 80 1013.7
20260506121507 66 188 5.0 14.0 0.00 0.00 0.00 77 1013.5
20260506121005 67 189 6.0 14.0 0.00 0.00 0.00 76 1013.5
20260506120507 67 202 4.0 8.0 0.00 0.00 0.00 76 1013.5
20260506120005 67 199 6.0 12.0 0.00 0.00 0.00 75 1013.5
20260506115507 68 175 6.0 10.0 0.00 0.00 0.00 74 1013.6
20260506115006 68 198 7.0 13.0 0.00 0.00 0.00 74 1013.6
20260506114505 68 205 6.0 13.0 0.00 0.00 0.00 72 1013.6
20260506114007 68 175 7.0 13.0 0.00 0.00 0.00 71 1013.6
20260506113505 69 195 7.0 14.0 0.00 0.00 0.00 71 1013.6
20260506113005 68 196 5.0 12.0 0.00 0.00 0.00 73 1013.5
20260506112505 68 167 5.0 12.0 0.00 0.00 0.00 72 1013.6
20260506112011 68 203 3.0 9.0 0.00 0.00 0.00 74 1013.6
20260506111505 67 175 5.0 12.0 0.00 0.00 0.00 75 1013.5
20260506111007 67 172 3.0 9.0 0.00 0.00 0.00 76 1013.6
20260506110005 66 160 5.0 12.0 0.00 0.00 0.00 77 1013.7
20260506105506 65 175 6.0 12.0 0.00 0.00 0.00 76 1013.8
20260506104505 65 174 5.0 12.0 0.00 0.00 0.00 77 1013.9
20260506104005 65 190 6.0 12.0 0.00 0.00 0.00 78 1014.0
20260506103505 65 171 6.0 10.0 0.00 0.00 0.00 77 1014.0
20260506103005 65 211 6.0 10.0 0.00 0.00 0.00 78 1014.0
20260506102506 65 199 7.0 13.0 0.00 0.00 0.00 77 1014.1
20260506102007 65 199 5.0 12.0 0.00 0.00 0.00 78 1014.1
20260506101007 65 215 6.0 13.0 0.00 0.00 0.00 76 1014.3
20260506100505 65 176 6.0 12.0 0.00 0.00 0.00 76 1014.2
20260506100006 66 195 6.0 10.0 0.00 0.00 0.00 76 1014.3
20260506095505 66 191 6.0 9.0 0.00 0.00 0.00 75 1014.3
20260506095015 66 216 5.0 9.0 0.00 0.00 0.00 74 1014.3
20260506094518 66 184 4.0 13.0 0.00 0.00 0.00 75 1014.3
20260506094005 67 194 6.0 13.0 0.00 0.00 0.00 73 1014.2
20260506093506 67 195 5.0 10.0 0.00 0.00 0.00 74 1014.2
20260506093011 67 181 6.0 12.0 0.00 0.00 0.00 73 1014.2
20260506092507 67 203 5.0 12.0 0.00 0.00 0.00 74 1014.2
20260506092007 67 189 6.0 13.0 0.00 0.00 0.00 72 1014.2
20260506091505 68 202 6.0 14.0 0.00 0.00 0.00 72 1014.1
20260506091006 68 187 6.0 14.0 0.00 0.00 0.00 71 1014.0
20260506090505 68 186 7.0 17.0 0.00 0.00 0.00 72 1014.0
20260506090007 68 172 6.0 13.0 0.00 0.00 0.00 72 1014.0
20260506085506 68 197 6.0 12.0 0.00 0.00 0.00 71 1013.9
20260506085005 68 187 7.0 12.0 0.00 0.00 0.00 72 1013.9
20260506084505 68 213 7.0 12.0 0.00 0.00 0.00 74 1013.9
20260506084005 67 194 6.0 12.0 0.00 0.00 0.00 73 1013.8
20260506083507 67 192 3.0 12.0 0.00 0.00 0.00 76 1013.8
20260506083010 67 191 6.0 15.0 0.00 0.00 0.00 75 1013.7
20260506082505 66 169 7.0 13.0 0.00 0.00 0.00 76 1013.7
20260506082011 66 195 6.0 12.0 0.00 0.00 0.00 76 1013.7
20260506081506 66 217 5.0 12.0 0.00 0.00 0.00 77 1013.6
20260506080507 66 170 6.0 13.0 0.00 0.00 0.00 77 1013.5
20260506073507 64 204 5.0 8.0 0.00 0.00 0.00 82 1013.6
20260506073007 64 191 5.0 9.0 0.00 0.00 0.00 83 1013.7
20260506072505 63 191 8.0 12.0 0.00 0.00 0.00 83 1013.7
20260506072006 63 196 4.0 10.0 0.00 0.00 0.00 84 1013.8
20260506071506 63 196 6.0 10.0 0.00 0.00 0.00 84 1013.8
20260506071007 63 185 5.0 12.0 0.00 0.00 0.00 84 1013.7
20260506070508 63 186 6.0 12.0 0.00 0.00 0.00 84 1013.8
20260506062506 62 192 5.0 9.0 0.00 0.00 0.00 86 1013.6
20260506062005 62 214 3.0 8.0 0.00 0.00 0.00 87 1013.6
20260506061507 62 199 6.0 10.0 0.00 0.00 0.00 87 1013.6
20260506061006 62 201 5.0 9.0 0.00 0.00 0.00 87 1013.6
20260506060505 62 191 4.0 9.0 0.00 0.00 0.00 87 1013.5
20260506051007 60 215 5.0 12.0 0.00 0.00 0.00 88 1013.2
20260506050505 60 202 3.0 7.0 0.00 0.00 0.00 88 1013.1
20260506045007 60 215 4.0 10.0 0.00 0.00 0.00 88 1013.1
20260506044507 60 208 5.0 10.0 0.00 0.00 0.00 88 1013.1
20260506044006 60 203 4.0 7.0 0.00 0.00 0.00 88 1013.1
20260506043506 60 194 4.0 8.0 0.00 0.00 0.00 88 1013.0
20260506043005 60 200 5.0 8.0 0.00 0.00 0.00 88 1013.0
20260506042505 60 206 1.0 8.0 0.00 0.00 0.00 88 1012.9
20260506042007 60 200 2.0 7.0 0.00 0.00 0.00 88 1012.8
20260506041507 60 194 2.0 5.0 0.00 0.00 0.00 88 1012.9
20260506041010 60 211 3.0 6.0 0.00 0.00 0.00 88 1013.0
20260506040507 60 215 5.0 7.0 0.00 0.00 0.00 88 1013.0
20260506040007 60 203 5.0 7.0 0.00 0.00 0.00 88 1013.0
20260506035507 60 209 5.0 8.0 0.00 0.00 0.00 88 1013.0
20260506035007 60 217 5.0 9.0 0.00 0.00 0.00 88 1013.0
20260506034510 60 208 5.0 8.0 0.00 0.00 0.00 88 1012.9
20260506034005 59 210 3.0 8.0 0.00 0.00 0.00 88 1012.9
20260506033506 59 209 5.0 7.0 0.00 0.00 0.00 88 1013.0
20260506033007 59 203 3.0 8.0 0.00 0.00 0.00 88 1013.0
20260506032507 59 200 4.0 8.0 0.00 0.00 0.00 88 1013.0
20260506032007 59 196 3.0 7.0 0.00 0.00 0.00 88 1013.0
20260506031507 59 205 3.0 6.0 0.00 0.00 0.00 88 1013.0
20260506030505 59 208 3.0 5.0 0.00 0.00 0.00 88 1013.0
20260506030005 59 193 2.0 5.0 0.00 0.00 0.00 88 1013.1
20260506025507 59 212 2.0 3.0 0.00 0.00 0.00 88 1013.0
20260506025012 59 193 2.0 3.0 0.00 0.00 0.00 88 1013.1
20260506024507 59 194 2.0 3.0 0.00 0.00 0.00 88 1013.1
20260506023507 59 251 0.0 1.0 0.00 0.00 0.00 88 1013.1
20260506022505 59 215 1.0 3.0 0.00 0.00 0.00 88 1013.2
20260506022007 59 197 2.0 5.0 0.00 0.00 0.00 88 1013.2
20260506021506 59 212 3.0 5.0 0.00 0.00 0.00 88 1013.2
20260506015508 59 208 2.0 5.0 0.00 0.00 0.00 88 1013.3
20260506015005 59 203 3.0 7.0 0.00 0.00 0.00 88 1013.3
20260506014506 59 202 3.0 7.0 0.00 0.00 0.00 88 1013.2
20260506014005 59 206 2.0 6.0 0.00 0.00 0.00 88 1013.2
20260506013505 59 195 3.0 6.0 0.00 0.00 0.00 88 1013.3
20260506012506 59 179 1.0 5.0 0.00 0.00 0.00 88 1013.2
20260506012008 59 177 1.0 6.0 0.00 0.00 0.00 88 1013.2
20260506011504 59 174 1.0 3.0 0.00 0.00 0.00 88 1013.2
20260506011005 59 196 2.0 5.0 0.00 0.00 0.00 88 1013.2
20260506010506 59 180 1.0 3.0 0.00 0.00 0.00 88 1013.2
20260506010010 59 190 2.0 5.0 0.00 0.00 0.00 88 1013.2
20260506005007 59 206 2.0 3.0 0.00 0.00 0.00 88 1013.3
20260506004505 59 200 1.0 3.0 0.00 0.00 0.00 88 1013.3
20260506004011 59 195 1.0 3.0 0.00 0.00 0.00 88 1013.4
20260506003006 59 210 2.0 3.0 0.00 0.00 0.00 88 1013.5
20260506002506 59 207 1.0 3.0 0.00 0.00 0.00 88 1013.5
20260506002008 59 210 2.0 5.0 0.00 0.00 0.00 88 1013.5
20260506001507 60 221 2.0 5.0 0.00 0.00 0.00 88 1013.6
20260506001011 60 204 2.0 6.0 0.00 0.00 0.00 88 1013.6
20260506000506 60 187 2.0 6.0 0.00 0.00 0.00 88 1013.6
20260506000006 60 188 2.0 5.0 0.00 0.00 0.00 88 1013.6
20260505235506 60 186 1.0 5.0 0.00 0.00 0.00 88 1013.7
20260505235006 60 208 1.0 5.0 0.00 0.00 0.00 88 1013.8
20260505234006 60 201 3.0 7.0 0.00 0.00 0.00 88 1013.8
20260505233506 60 219 3.0 8.0 0.00 0.00 0.00 88 1013.8
20260505233008 60 214 3.0 6.0 0.00 0.00 0.00 88 1013.9
20260505232505 60 210 3.0 6.0 0.00 0.00 0.00 88 1013.9
20260505232007 60 208 2.0 7.0 0.00 0.00 0.00 88 1014.0
20260505231506 60 205 2.0 6.0 0.00 0.00 0.00 88 1014.0
20260505231005 60 210 3.0 5.0 0.00 0.00 0.00 88 1014.0
20260505230505 60 206 2.0 6.0 0.00 0.00 0.00 88 1014.0
20260505230007 60 206 3.0 6.0 0.00 0.00 0.00 88 1014.0
20260505225507 60 204 1.0 6.0 0.00 0.00 0.00 88 1014.1
20260505225006 60 209 2.0 5.0 0.00 0.00 0.00 88 1014.1
20260505224506 60 201 2.0 3.0 0.00 0.00 0.00 88 1014.1
20260505223507 60 215 3.0 6.0 0.00 0.00 0.00 88 1014.0
20260505223008 60 203 5.0 6.0 0.00 0.00 0.00 88 1014.1
20260505222506 60 201 3.0 7.0 0.00 0.00 0.00 88 1014.1
20260505222007 60 194 3.0 6.0 0.00 0.00 0.00 88 1014.2
20260505221006 60 190 2.0 5.0 0.00 0.00 0.00 88 1014.3
20260505220511 60 214 2.0 6.0 0.00 0.00 0.00 88 1014.3
20260505220007 60 203 3.0 5.0 0.00 0.00 0.00 88 1014.4
20260505215505 60 202 3.0 6.0 0.00 0.00 0.00 88 1014.4
20260505215007 60 202 3.0 6.0 0.00 0.00 0.00 87 1014.4
20260505214506 60 208 4.0 6.0 0.00 0.00 0.00 87 1014.4
20260505214005 60 176 3.0 6.0 0.00 0.00 0.00 87 1014.4
20260505213007 60 202 3.0 8.0 0.00 0.00 0.00 87 1014.5
20260505212513 60 203 5.0 8.0 0.00 0.00 0.00 87 1014.5
20260505211507 60 203 4.0 8.0 0.00 0.00 0.00 87 1014.6
20260505211007 60 195 3.0 9.0 0.00 0.00 0.00 87 1014.7
20260505210507 60 181 3.0 7.0 0.00 0.00 0.00 87 1014.8
20260505210008 60 204 3.0 7.0 0.00 0.00 0.00 86 1014.8
20260505205506 60 207 3.0 8.0 0.00 0.00 0.00 86 1014.8
20260505204507 60 206 5.0 7.0 0.00 0.00 0.00 86 1014.9
20260505204007 60 216 4.0 8.0 0.00 0.00 0.00 86 1014.9
20260505203508 60 196 3.0 6.0 0.00 0.00 0.00 85 1014.9
20260505202507 60 203 3.0 7.0 0.00 0.00 0.00 85 1015.0
20260505201507 60 200 4.0 7.0 0.00 0.00 0.00 84 1015.0
20260505201007 60 200 2.0 7.0 0.00 0.00 0.00 83 1015.1
20260505200507 60 212 3.0 6.0 0.00 0.00 0.00 82 1015.1
20260505200007 60 200 3.0 5.0 0.00 0.00 0.00 81 1015.0
20260505195507 60 206 2.0 6.0 0.00 0.00 0.00 81 1015.0
20260505195007 60 221 3.0 6.0 0.00 0.00 0.00 80 1014.9
20260505194505 60 207 3.0 6.0 0.00 0.00 0.00 79 1014.9
20260505194010 60 212 3.0 7.0 0.00 0.00 0.00 79 1014.8
20260505193506 61 213 4.0 7.0 0.00 0.00 0.00 78 1014.8
20260505193007 61 210 4.0 7.0 0.00 0.00 0.00 78 1014.8
20260505192506 61 213 3.0 7.0 0.00 0.00 0.00 77 1014.8
20260505192007 61 197 3.0 7.0 0.00 0.00 0.00 77 1014.7
20260505191507 61 202 2.0 3.0 0.00 0.00 0.00 76 1014.7
20260505190511 61 205 3.0 5.0 0.00 0.00 0.00 75 1014.8
20260505190005 61 192 1.0 3.0 0.00 0.00 0.00 75 1014.7
20260505185507 61 184 1.0 3.0 0.00 0.00 0.00 75 1014.7
20260505185007 61 185 2.0 5.0 0.00 0.00 0.00 75 1014.7
20260505184506 61 188 2.0 5.0 0.00 0.00 0.00 75 1014.6
20260505184010 61 212 3.0 7.0 0.00 0.00 0.00 74 1014.5
20260505183007 62 201 4.0 7.0 0.00 0.00 0.00 74 1014.5
20260505182504 62 207 3.0 6.0 0.00 0.00 0.00 73 1014.6
20260505182008 62 210 3.0 6.0 0.00 0.00 0.00 72 1014.5
20260505181507 62 215 4.0 7.0 0.00 0.00 0.00 71 1014.5
20260505181007 63 197 3.0 7.0 0.00 0.00 0.00 70 1014.5
20260505180505 63 209 4.0 7.0 0.00 0.00 0.00 69 1014.4
20260505180006 63 203 4.0 7.0 0.00 0.00 0.00 68 1014.5
20260505175506 63 210 3.0 8.0 0.00 0.00 0.00 67 1014.5
20260505175006 64 211 4.0 7.0 0.00 0.00 0.00 66 1014.5
20260505173507 64 220 3.0 8.0 0.00 0.00 0.00 68 1014.6
20260505173006 64 188 2.0 3.0 0.00 0.00 0.00 68 1014.6
20260505172505 65 197 2.0 3.0 0.00 0.00 0.00 68 1014.5
20260505172010 65 178 2.0 5.0 0.00 0.00 0.00 69 1014.6
20260505171505 65 213 4.0 7.0 0.00 0.00 0.00 68 1014.6
20260505171010 65 201 2.0 5.0 0.00 0.00 0.00 69 1014.7
20260505170505 65 180 2.0 6.0 0.00 0.00 0.00 68 1014.7
20260505170005 65 176 2.0 3.0 0.00 0.00 0.00 68 1014.6
20260505165507 66 189 1.0 3.0 0.00 0.00 0.00 67 1014.6
20260505165010 66 192 2.0 3.0 0.00 0.00 0.00 66 1014.6
20260505164505 66 203 3.0 6.0 0.00 0.00 0.00 65 1014.7
20260505164007 66 189 2.0 5.0 0.00 0.00 0.00 63 1014.7
20260505163506 66 183 2.0 3.0 0.00 0.00 0.00 62 1014.7
20260505162505 66 209 3.0 6.0 0.00 0.00 0.00 61 1014.7
20260505161505 67 206 4.0 7.0 0.00 0.00 0.00 60 1014.8
20260505160507 67 215 3.0 6.0 0.00 0.00 0.00 61 1015.0
20260505153010 68 171 3.0 7.0 0.00 0.00 0.00 59 1014.9
20260505152507 68 178 2.0 5.0 0.00 0.00 0.00 59 1014.9
20260505151506 68 184 2.0 5.0 0.00 0.00 0.00 59 1015.0